This demonstration page uses our WeatherBlox Daily Observations layout. Learn more.

Left ArrowRight Arrow

39.29038, -76.61219

Hourly Observations for December 30, 2020

Temp ( °F °C ) Dew Point ( °F °C ) Humidity (%) Winds ( mph kmh ) Pressure ( in mb ) Visibility ( mi km ) Precip ( " mm )
12:54 am 00:54 Mostly Cloudy 28 -2.2 18 -7.8 66 66 Calm 30.57 1035 10 16 0.00 0.00
1:54 am 01:54 Cloudy 29 -1.7 19 -7.2 66 66 Calm 30.57 1035 10 16 0.00 0.00
2:54 am 02:54 Mostly Cloudy 30 -1.1 22 -5.6 72 72 Calm 30.55 1034 10 16 0.00 0.00
3:54 am 03:54 Cloudy 30 -1.1 22 -5.6 72 72 Calm 30.54 1034 10 16 0.00 0.00
4:54 am 04:54 Cloudy 32 0 19 -7.2 59 59 SE 3 6 30.51 1033 10 16 0.00 0.00
5:54 am 05:54 Mostly Cloudy 32 0 18 -7.8 56 56 Calm 30.51 1033 10 16 0.00 0.00
6:54 am 06:54 Mostly Cloudy 31 -0.6 19 -7.2 61 61 Calm 30.50 1033 10 16 0.00 0.00
7:54 am 07:54 Partly Cloudy 30 -1.1 19 -7.2 64 64 Calm 30.51 1033 10 16 0.00 0.00
8:54 am 08:54 Partly Cloudy 32 0 20 -6.7 61 61 SSW 3 6 30.51 1033 10 16 0.00 0.00
9:54 am 09:54 Partly Cloudy 36 2.2 19 -7.2 50 50 SSW 6 9 30.49 1033 10 16 0.00 0.00
10:54 am 10:54 Mostly Cloudy 39 3.9 18 -7.8 43 43 S 10 17 30.45 1031 10 16 0.00 0.00
11:54 am 11:54 Mostly Cloudy 40 4.4 16 -8.9 38 38 SSW 10 17 30.40 1029 10 16 0.00 0.00
12:54 pm 12:54 Mostly Cloudy 44 6.7 16 -8.9 32 32 S 10 17 30.33 1027 10 16 0.00 0.00
1:54 pm 13:54 Mostly Cloudy 44 6.7 16 -8.9 32 32 S 8 13 30.30 1026 10 16 0.00 0.00
2:54 pm 14:54 Mostly Cloudy 44 6.7 19 -7.2 37 37 SSW 8 13 30.27 1025 10 16 0.00 0.00
3:54 pm 15:54 Mostly Cloudy 45 7.2 21 -6.1 39 39 SSW 8 13 30.25 1024 10 16 0.00 0.00
4:54 pm 16:54 Mostly Cloudy 44 6.7 22 -5.6 41 41 SSW 7 11 30.23 1024 10 16 0.00 0.00
5:54 pm 17:54 Mostly Cloudy 44 6.7 22 -5.6 41 41 SSW 7 11 30.21 1023 10 16 0.00 0.00
6:54 pm 18:54 Partly Cloudy 44 6.7 23 -5 43 43 VRB 5 7 30.17 1022 10 16 0.00 0.00
7:54 pm 19:54 Partly Cloudy 42 5.6 23 -5 47 47 SSW 5 7 30.15 1021 10 16 0.00 0.00
8:13 pm 20:13 Mostly Cloudy 42 5.6 23 -5 47 47 S 5 7 30.15 1021 10 16 0.00 0.00
8:54 pm 20:54 Mostly Cloudy 43 6.1 23 -5 45 45 S 6 9 30.11 1020 10 16 0.00 0.00
9:54 pm 21:54 Mostly Cloudy 45 7.2 25 -3.9 46 46 S 9 15 30.10 1019 10 16 0.00 0.00
10:30 pm 22:30 Cloudy 47 8.3 29 -1.7 50 50 SSW 10 17 30.09 1019 10 16 0.00 0.00
10:54 pm 22:54 Mostly Cloudy 47 8.3 32 0 56 56 SSW 9 15 30.08 1019 10 16 0.00 0.00
11:09 pm 23:09 Cloudy 47 8.3 34 1.1 61 61 SSW 12 19 30.07 1018 10 16 0.00 0.00
11:54 pm 23:54 Cloudy 48 8.9 39 3.9 71 71 SW 10 17 30.06 1018 10 16 0.00 0.00

Powered by AerisWeather